• Em Portugal
  • Lista de países
  • Para 7 dias
  • Temperatura da água
  • Mapas de satélite
  • Mapa do tempo
  • Widgets de tempo
  • user-avatar
    Iniciar Sessão

    Previsão horária em Ozery

    Hoje, 21 Julho, Sábado

    Tempo Temperatura Precipitação Vento Pressão Humidade
    00:00 +19°C° 0,1 mm 2 m/s 736 mmHg 95%
    01:00 +18°C° 0,1 mm 2 m/s 736 mmHg 95%
    02:00 +18°C° 0 mm 2 m/s 736 mmHg 96%
    03:00 +18°C° 0,2 mm 2 m/s 736 mmHg 96%
    04:00 +18°C° 0,2 mm 2 m/s 736 mmHg 97%
    05:00 +18°C° 0,2 mm 2 m/s 736 mmHg 97%
    06:00 +19°C° 0,3 mm 2 m/s 737 mmHg 95%
    07:00 +20°C° 0,3 mm 2 m/s 737 mmHg 93%
    08:00 +21°C° 0,3 mm 3 m/s 737 mmHg 92%
    09:00 +22°C° 1,2 mm 3 m/s 737 mmHg 89%
    10:00 +24°C° 1,2 mm 3 m/s 737 mmHg 86%
    11:00 +25°C° 1,2 mm 3 m/s 737 mmHg 83%
    12:00 +25°C° 0,7 mm 4 m/s 737 mmHg 81%
    13:00 +25°C° 0,7 mm 4 m/s 737 mmHg 80%
    14:00 +26°C° 0,7 mm 4 m/s 737 mmHg 79%
    15:00 +25°C° 0,8 mm 4 m/s 737 mmHg 80%
    16:00 +25°C° 0,8 mm 4 m/s 737 mmHg 82%
    17:00 +25°C° 0,8 mm 4 m/s 737 mmHg 83%
    18:00 +24°C° 0,7 mm 3 m/s 737 mmHg 86%
    19:00 +22°C° 0,7 mm 3 m/s 737 mmHg 88%
    20:00 +21°C° 0,7 mm 3 m/s 737 mmHg 91%
    21:00 +20°C° 0,3 mm 3 m/s 737 mmHg 92%
    22:00 +20°C° 0,3 mm 2 m/s 737 mmHg 93%
    23:00 +19°C° 0,3 mm 2 m/s 737 mmHg 95%

    Amanhã, 22 Julho, Domingo

    Tempo Temperatura Precipitação Vento Pressão Humidade
    00:00 +19°C° 0,1 mm 2 m/s 737 mmHg 95%
    01:00 +19°C° 0,1 mm 2 m/s 737 mmHg 96%
    02:00 +19°C° 0,1 mm 2 m/s 737 mmHg 96%
    03:00 +19°C° 0,2 mm 3 m/s 737 mmHg 96%
    04:00 +19°C° 0,2 mm 3 m/s 737 mmHg 97%
    05:00 +19°C° 0,2 mm 3 m/s 737 mmHg 97%
    06:00 +19°C° 0,1 mm 3 m/s 737 mmHg 95%
    07:00 +20°C° 0,1 mm 3 m/s 737 mmHg 94%
    08:00 +21°C° 0,1 mm 3 m/s 737 mmHg 92%
    09:00 +22°C° 1 mm 4 m/s 737 mmHg 90%
    10:00 +23°C° 1 mm 4 m/s 737 mmHg 87%
    11:00 +25°C° 1 mm 4 m/s 737 mmHg 85%
    12:00 +25°C° 1,4 mm 4 m/s 737 mmHg 84%
    13:00 +25°C° 1,4 mm 4 m/s 737 mmHg 83%
    14:00 +26°C° 1,4 mm 4 m/s 737 mmHg 82%
    15:00 +25°C° 1,9 mm 4 m/s 737 mmHg 84%
    16:00 +25°C° 1,9 mm 4 m/s 737 mmHg 86%
    17:00 +23°C° 1,9 mm 4 m/s 737 mmHg 88%
    18:00 +23°C° 1,3 mm 4 m/s 737 mmHg 90%
    19:00 +22°C° 1,3 mm 4 m/s 737 mmHg 92%
    20:00 +21°C° 1,3 mm 4 m/s 737 mmHg 94%
    21:00 +21°C° 0,5 mm 4 m/s 737 mmHg 95%
    22:00 +20°C° 0,5 mm 4 m/s 737 mmHg 96%
    23:00 +19°C° 0,5 mm 4 m/s 737 mmHg 96%

    Depois de amanhã, 23 Julho, Segunda-feira

    Tempo Temperatura Precipitação Vento Pressão Humidade
    00:00 +19°C° 0 mm 4 m/s 737 mmHg 96%
    01:00 +19°C° 0 mm 4 m/s 737 mmHg 96%
    02:00 +19°C° 0 mm 3 m/s 737 mmHg 96%
    03:00 +19°C° 0 mm 3 m/s 737 mmHg 96%
    04:00 +19°C° 0 mm 3 m/s 737 mmHg 96%
    05:00 +19°C° 0 mm 3 m/s 737 mmHg 96%
    06:00 +19°C° 0 mm 4 m/s 737 mmHg 94%
    07:00 +20°C° 0 mm 4 m/s 737 mmHg 93%
    08:00 +20°C° 0 mm 4 m/s 738 mmHg 91%
    09:00 +20°C° 0,1 mm 4 m/s 738 mmHg 90%
    10:00 +21°C° 0,1 mm 4 m/s 738 mmHg 90%
    11:00 +21°C° 0,1 mm 4 m/s 738 mmHg 89%
    12:00 +21°C° 0,1 mm 4 m/s 738 mmHg 87%
    13:00 +22°C° 0,1 mm 4 m/s 738 mmHg 86%
    14:00 +22°C° 0,1 mm 4 m/s 738 mmHg 85%
    15:00 +22°C° 0,1 mm 4 m/s 738 mmHg 84%
    16:00 +22°C° 0,1 mm 4 m/s 738 mmHg 84%
    17:00 +22°C° 0,1 mm 4 m/s 738 mmHg 83%
    18:00 +21°C° 0 mm 4 m/s 738 mmHg 87%
    19:00 +21°C° 0 mm 3 m/s 738 mmHg 90%
    20:00 +20°C° 0 mm 3 m/s 738 mmHg 94%
    21:00 +19°C° 0 mm 3 m/s 739 mmHg 95%
    22:00 +18°C° 0 mm 3 m/s 739 mmHg 96%
    23:00 +18°C° 0 mm 3 m/s 739 mmHg 97%

    24 Julho, Terça-feira

    Tempo Temperatura Precipitação Vento Pressão Humidade
    00:00 +17°C° 0 mm 3 m/s 739 mmHg 97%
    01:00 +17°C° 0 mm 3 m/s 738 mmHg 97%
    02:00 +16°C° 0 mm 3 m/s 738 mmHg 98%
    03:00 +16°C° 0 mm 3 m/s 738 mmHg 98%
    04:00 +16°C° 0 mm 3 m/s 739 mmHg 98%
    05:00 +16°C° 0 mm 3 m/s 739 mmHg 98%
    06:00 +17°C° 0 mm 3 m/s 739 mmHg 95%
    07:00 +18°C° 0 mm 3 m/s 739 mmHg 92%
    08:00 +19°C° 0 mm 3 m/s 739 mmHg 90%
    09:00 +19°C° 0 mm 3 m/s 739 mmHg 89%
    10:00 +20°C° 0 mm 3 m/s 739 mmHg 87%
    11:00 +20°C° 0 mm 3 m/s 739 mmHg 86%
    12:00 +21°C° 0 mm 3 m/s 739 mmHg 84%
    13:00 +22°C° 0 mm 3 m/s 739 mmHg 83%
    14:00 +22°C° 0 mm 3 m/s 739 mmHg 81%
    15:00 +24°C° 0,1 mm 3 m/s 739 mmHg 81%
    16:00 +24°C° 0,1 mm 3 m/s 739 mmHg 81%
    17:00 +24°C° 0,1 mm 2 m/s 739 mmHg 81%
    18:00 +23°C° 0,1 mm 2 m/s 739 mmHg 85%
    19:00 +21°C° 0,1 mm 2 m/s 740 mmHg 89%
    20:00 +20°C° 0,1 mm 2 m/s 740 mmHg 93%
    21:00 +20°C° 0 mm 2 m/s 740 mmHg 94%
    22:00 +19°C° 0 mm 2 m/s 740 mmHg 95%
    23:00 +19°C° 0 mm 2 m/s 740 mmHg 96%

    25 Julho, Quarta-feira

    Tempo Temperatura Precipitação Vento Pressão Humidade
    00:00 +18°C° 0 mm 2 m/s 740 mmHg 96%
    01:00 +18°C° 0 mm 2 m/s 740 mmHg 97%
    02:00 +18°C° 0 mm 2 m/s 740 mmHg 97%
    03:00 +18°C° 0 mm 2 m/s 740 mmHg 97%
    04:00 +18°C° 0 mm 2 m/s 740 mmHg 97%
    05:00 +18°C° 0 mm 2 m/s 741 mmHg 98%
    06:00 +19°C° 0,1 mm 2 m/s 741 mmHg 96%
    07:00 +20°C° 0,1 mm 2 m/s 741 mmHg 94%
    08:00 +21°C° 0,1 mm 2 m/s 741 mmHg 91%
    09:00 +22°C° 0,1 mm 3 m/s 741 mmHg 89%
    10:00 +24°C° 0,1 mm 3 m/s 742 mmHg 86%
    11:00 +25°C° 0,1 mm 3 m/s 742 mmHg 83%
    12:00 +25°C° 0,7 mm 3 m/s 742 mmHg 82%
    13:00 +26°C° 0,7 mm 4 m/s 742 mmHg 81%
    14:00 +26°C° 0,7 mm 4 m/s 742 mmHg 80%
    15:00 +25°C° 0,6 mm 4 m/s 742 mmHg 82%
    16:00 +23°C° 0,6 mm 4 m/s 742 mmHg 85%
    17:00 +23°C° 0,6 mm 4 m/s 742 mmHg 87%
    18:00 +22°C° 0,1 mm 3 m/s 742 mmHg 89%
    19:00 +21°C° 0,1 mm 3 m/s 742 mmHg 92%
    20:00 +20°C° 0,1 mm 2 m/s 742 mmHg 95%
    21:00 +19°C° 0 mm 2 m/s 742 mmHg 95%
    22:00 +19°C° 0 mm 2 m/s 742 mmHg 96%
    23:00 +18°C° 0 mm 2 m/s 742 mmHg 97%

    26 Julho, Quinta-feira

    Tempo Temperatura Precipitação Vento Pressão Humidade
    00:00 +18°C° 0 mm 2 m/s 742 mmHg 97%
    01:00 +19°C° 0 mm 1 m/s 742 mmHg 97%
    02:00 +19°C° 0 mm 1 m/s 742 mmHg 97%
    03:00 +18°C° 0,1 mm 2 m/s 742 mmHg 97%
    04:00 +18°C° 0,1 mm 2 m/s 743 mmHg 98%
    05:00 +18°C° 0,1 mm 2 m/s 743 mmHg 98%
    06:00 +18°C° 0,1 mm 2 m/s 743 mmHg 96%
    07:00 +19°C° 0,1 mm 3 m/s 743 mmHg 95%
    08:00 +20°C° 0,1 mm 3 m/s 744 mmHg 93%
    09:00 +21°C° 0,2 mm 3 m/s 744 mmHg 91%
    10:00 +22°C° 0,2 mm 4 m/s 744 mmHg 89%
    11:00 +23°C° 0,2 mm 4 m/s 744 mmHg 87%
    12:00 +23°C° 0,9 mm 4 m/s 744 mmHg 85%
    13:00 +25°C° 0,9 mm 5 m/s 744 mmHg 84%
    14:00 +25°C° 0,9 mm 5 m/s 744 mmHg 82%
    15:00 +25°C° 0,9 mm 5 m/s 744 mmHg 83%
    16:00 +25°C° 0,9 mm 4 m/s 744 mmHg 84%
    17:00 +25°C° 0,9 mm 4 m/s 744 mmHg 85%
    18:00 +24°C° 0,3 mm 3 m/s 744 mmHg 87%
    19:00 +22°C° 0,3 mm 3 m/s 744 mmHg 89%
    20:00 +21°C° 0,3 mm 3 m/s 744 mmHg 91%
    21:00 +21°C° 0,4 mm 3 m/s 745 mmHg 93%
    22:00 +20°C° 0,4 mm 3 m/s 745 mmHg 94%
    23:00 +20°C° 0,4 mm 3 m/s 745 mmHg 95%
    Mostrar mais